• In Austria
  • List of Countries
  • For 7 days
  • Water Temperature
  • Satellite Maps
  • Weather Map
  • News
  • Weather Widgets
  • user-avatar
    Login

    Hourly Weather Canillo

    Today, 18 December, Monday

    Time Temperature Precipitation Wind Pressure Humidity
    00:00 -5°C° 0 mm 2 mps 623 mmHg 80%
    01:00 -5°C° 0 mm 2 mps 622 mmHg 81%
    02:00 -7°C° 0 mm 3 mps 622 mmHg 81%
    03:00 -7°C° 0 mm 3 mps 622 mmHg 82%
    04:00 -7°C° 0 mm 3 mps 622 mmHg 81%
    05:00 -7°C° 0 mm 3 mps 622 mmHg 81%
    06:00 -7°C° 0 mm 3 mps 622 mmHg 81%
    07:00 -6°C° 0 mm 3 mps 622 mmHg 78%
    08:00 -4°C° 0 mm 2 mps 622 mmHg 75%
    09:00 -3°C° 0 mm 2 mps 623 mmHg 72%
    10:00 -2°C° 0.2 mm 3 mps 622 mmHg 73%
    11:00 -1°C° 0.2 mm 3 mps 622 mmHg 73%
    12:00 0°C° 0.2 mm 3 mps 622 mmHg 73%
    13:00 0°C° 0.8 mm 3 mps 621 mmHg 76%
    14:00 0°C° 0.8 mm 3 mps 621 mmHg 79%
    15:00 0°C° 0.8 mm 3 mps 620 mmHg 82%
    16:00 -1°C° 1.2 mm 3 mps 619 mmHg 86%
    17:00 -1°C° 1.2 mm 3 mps 619 mmHg 89%
    18:00 -2°C° 1.2 mm 4 mps 619 mmHg 92%
    19:00 -3°C° 0.5 mm 4 mps 619 mmHg 92%
    20:00 -3°C° 0.5 mm 4 mps 619 mmHg 92%
    21:00 -4°C° 0.5 mm 3 mps 620 mmHg 91%
    22:00 -4°C° 0.1 mm 3 mps 620 mmHg 91%
    23:00 -5°C° 0.1 mm 3 mps 620 mmHg 91%

    Tomorrow, 19 December, Tuesday

    Time Temperature Precipitation Wind Pressure Humidity
    00:00 -6°C° 0.1 mm 3 mps 620 mmHg 91%
    01:00 -6°C° 0 mm 3 mps 620 mmHg 91%
    02:00 -7°C° 0 mm 3 mps 620 mmHg 91%
    03:00 -8°C° 0 mm 3 mps 620 mmHg 91%
    04:00 -8°C° 0 mm 3 mps 621 mmHg 89%
    05:00 -9°C° 0 mm 3 mps 621 mmHg 88%
    06:00 -9°C° 0 mm 3 mps 621 mmHg 86%
    07:00 -7°C° 0 mm 2 mps 622 mmHg 82%
    08:00 -6°C° 0 mm 2 mps 623 mmHg 79%
    09:00 -5°C° 0 mm 2 mps 624 mmHg 75%
    10:00 -4°C° 0 mm 2 mps 624 mmHg 71%
    11:00 -2°C° 0 mm 2 mps 625 mmHg 67%
    12:00 -1°C° 0 mm 2 mps 626 mmHg 64%
    13:00 -1°C° 0 mm 2 mps 625 mmHg 66%
    14:00 -2°C° 0 mm 2 mps 625 mmHg 69%
    15:00 -2°C° 0 mm 2 mps 625 mmHg 71%
    16:00 -4°C° 0 mm 2 mps 624 mmHg 76%
    17:00 -5°C° 0 mm 2 mps 624 mmHg 82%
    18:00 -7°C° 0 mm 2 mps 624 mmHg 87%
    19:00 -7°C° 0 mm 2 mps 624 mmHg 86%
    20:00 -8°C° 0 mm 2 mps 624 mmHg 84%
    21:00 -8°C° 0 mm 2 mps 624 mmHg 83%
    22:00 -8°C° 0 mm 2 mps 624 mmHg 81%
    23:00 -8°C° 0 mm 2 mps 624 mmHg 79%

    Day after tomorrow, 20 December, Wednesday

    Time Temperature Precipitation Wind Pressure Humidity
    00:00 -8°C° 0 mm 2 mps 624 mmHg 77%
    01:00 -7°C° 0 mm 2 mps 624 mmHg 75%
    02:00 -7°C° 0 mm 2 mps 624 mmHg 74%
    03:00 -7°C° 0 mm 2 mps 624 mmHg 72%
    04:00 -7°C° 0 mm 2 mps 624 mmHg 72%
    05:00 -7°C° 0 mm 2 mps 624 mmHg 72%
    06:00 -7°C° 0 mm 2 mps 624 mmHg 72%
    07:00 -5°C° 0 mm 2 mps 624 mmHg 72%
    08:00 -4°C° 0 mm 2 mps 625 mmHg 71%
    09:00 -4°C° 0 mm 3 mps 626 mmHg 71%
    10:00 -2°C° 0 mm 3 mps 626 mmHg 71%
    11:00 0°C° 0 mm 3 mps 626 mmHg 71%
    12:00 +1°C° 0 mm 3 mps 626 mmHg 70%
    13:00 +1°C° 0 mm 3 mps 626 mmHg 72%
    14:00 0°C° 0 mm 3 mps 626 mmHg 73%
    15:00 0°C° 0 mm 3 mps 625 mmHg 74%
    16:00 -1°C° 0 mm 3 mps 625 mmHg 78%
    17:00 -4°C° 0 mm 3 mps 625 mmHg 82%
    18:00 -5°C° 0 mm 3 mps 625 mmHg 86%
    19:00 -5°C° 0 mm 3 mps 625 mmHg 86%
    20:00 -5°C° 0 mm 3 mps 625 mmHg 86%
    21:00 -5°C° 0 mm 3 mps 625 mmHg 86%
    22:00 -5°C° 0 mm 3 mps 626 mmHg 85%
    23:00 -5°C° 0 mm 3 mps 626 mmHg 85%

    21 December, Thursday

    Time Temperature Precipitation Wind Pressure Humidity
    00:00 -4°C° 0 mm 3 mps 626 mmHg 84%
    01:00 -4°C° 0 mm 2 mps 626 mmHg 84%
    02:00 -4°C° 0 mm 2 mps 626 mmHg 85%
    03:00 -4°C° 0 mm 2 mps 626 mmHg 85%
    04:00 -4°C° 0 mm 2 mps 626 mmHg 85%
    05:00 -4°C° 0 mm 2 mps 626 mmHg 85%
    06:00 -4°C° 0 mm 2 mps 626 mmHg 86%
    07:00 -4°C° 0 mm 2 mps 626 mmHg 83%
    08:00 -3°C° 0 mm 2 mps 627 mmHg 80%
    09:00 -2°C° 0 mm 2 mps 628 mmHg 77%
    10:00 +1°C° 0 mm 2 mps 628 mmHg 75%
    11:00 +2°C° 0 mm 2 mps 629 mmHg 74%
    12:00 +3°C° 0 mm 2 mps 629 mmHg 72%
    13:00 +3°C° 0 mm 2 mps 629 mmHg 73%
    14:00 +3°C° 0 mm 2 mps 629 mmHg 75%
    15:00 +2°C° 0 mm 2 mps 628 mmHg 76%
    16:00 +1°C° 0 mm 2 mps 628 mmHg 80%
    17:00 -2°C° 0 mm 2 mps 628 mmHg 83%
    18:00 -3°C° 0 mm 2 mps 627 mmHg 86%
    19:00 -3°C° 0 mm 2 mps 627 mmHg 85%
    20:00 -3°C° 0 mm 2 mps 628 mmHg 83%
    21:00 -3°C° 0 mm 2 mps 628 mmHg 82%
    22:00 -3°C° 0 mm 2 mps 628 mmHg 82%
    23:00 -3°C° 0 mm 2 mps 628 mmHg 81%

    22 December, Friday

    Time Temperature Precipitation Wind Pressure Humidity
    00:00 -3°C° 0 mm 2 mps 627 mmHg 81%
    01:00 -3°C° 0 mm 2 mps 627 mmHg 81%
    02:00 -3°C° 0 mm 2 mps 627 mmHg 81%
    03:00 -3°C° 0 mm 2 mps 627 mmHg 82%
    04:00 -3°C° 0 mm 2 mps 627 mmHg 82%
    05:00 -3°C° 0 mm 2 mps 627 mmHg 83%
    06:00 -3°C° 0 mm 2 mps 627 mmHg 83%
    07:00 -2°C° 0 mm 2 mps 627 mmHg 82%
    08:00 -1°C° 0 mm 2 mps 628 mmHg 80%
    09:00 -1°C° 0 mm 2 mps 628 mmHg 78%
    10:00 +1°C° 0 mm 2 mps 628 mmHg 77%
    11:00 +3°C° 0 mm 2 mps 628 mmHg 76%
    12:00 +3°C° 0 mm 3 mps 629 mmHg 74%
    13:00 +3°C° 0 mm 2 mps 628 mmHg 76%
    14:00 +3°C° 0 mm 2 mps 628 mmHg 78%
    15:00 +2°C° 0 mm 2 mps 627 mmHg 80%
    16:00 +1°C° 0 mm 2 mps 627 mmHg 82%
    17:00 -1°C° 0 mm 2 mps 627 mmHg 85%
    18:00 -2°C° 0 mm 2 mps 626 mmHg 87%
    19:00 -2°C° 0 mm 2 mps 626 mmHg 86%
    20:00 -2°C° 0 mm 2 mps 626 mmHg 86%
    21:00 -3°C° 0 mm 2 mps 627 mmHg 85%
    22:00 -3°C° 0 mm 2 mps 626 mmHg 84%
    23:00 -3°C° 0 mm 2 mps 626 mmHg 84%

    23 December, Saturday

    Time Temperature Precipitation Wind Pressure Humidity
    00:00 -3°C° 0 mm 2 mps 626 mmHg 83%
    01:00 -3°C° 0 mm 2 mps 626 mmHg 82%
    02:00 -3°C° 0 mm 2 mps 626 mmHg 81%
    03:00 -5°C° 0 mm 3 mps 625 mmHg 80%
    04:00 -5°C° 0 mm 3 mps 625 mmHg 81%
    05:00 -5°C° 0 mm 3 mps 625 mmHg 81%
    06:00 -4°C° 0 mm 2 mps 625 mmHg 82%
    07:00 -3°C° 0 mm 2 mps 625 mmHg 80%
    08:00 -3°C° 0 mm 2 mps 626 mmHg 78%
    09:00 -2°C° 0 mm 2 mps 626 mmHg 76%
    10:00 -1°C° 0 mm 2 mps 626 mmHg 73%
    11:00 +1°C° 0 mm 2 mps 627 mmHg 70%
    12:00 +3°C° 0 mm 2 mps 627 mmHg 67%
    13:00 +2°C° 0 mm 2 mps 626 mmHg 68%
    14:00 +2°C° 0 mm 2 mps 626 mmHg 69%
    15:00 +2°C° 0 mm 2 mps 625 mmHg 71%
    16:00 -1°C° 0 mm 2 mps 625 mmHg 74%
    17:00 -2°C° 0 mm 2 mps 624 mmHg 77%
    18:00 -4°C° 0 mm 2 mps 624 mmHg 81%
    19:00 -4°C° 0 mm 2 mps 624 mmHg 78%
    20:00 -4°C° 0 mm 2 mps 624 mmHg 75%
    21:00 -4°C° 0 mm 2 mps 624 mmHg 72%
    22:00 -4°C° 0 mm 2 mps 623 mmHg 70%
    23:00 -4°C° 0 mm 2 mps 623 mmHg 67%
    Show more